Hourly Data Report for October 02, 2017

All times are specified in Local Standard Time (LST). Add 1 hour to adjust for Daylight Saving Time where and when it is observed.

YARMOUTH A
NOVA SCOTIA

43°49'37.000" N
66°05'17.000" W
42.90 m
8206495
71603
YQI

Download Data

Hourly Data (October 2017)
Hourly Data Report for October 2, 2017
Temp Definition
°C
Dew Point Temp Definition
°C
Rel Hum Definition
%
Wind Dir Definition
10's deg

Wind Spd Definition
km/h
Visibility Definition
km
Stn Press Definition
kPa
Hmdx Definition


Wind Chill Definition


Weather Definition


TIME
00:00 Legend Double Dagger 12.0 10.0 87 33 13 24.1 101.57     LegendNANA
01:00 Legend Double Dagger 11.9 9.7 86 33 13 24.1 101.56     LegendNANA
02:00 Legend Double Dagger 11.1 8.3 83 35 12 24.1 101.55     Clear
03:00 Legend Double Dagger 10.7 7.2 79 35 18 24.1 101.55     LegendNANA
04:00 Legend Double Dagger 9.9 7.0 82 35 15 24.1 101.62     LegendNANA
05:00 Legend Double Dagger 9.5 6.8 83 35 18 24.1 101.69     Clear
06:00 Legend Double Dagger 8.7 6.8 87 36 16 24.1 101.78     LegendNANA
07:00 Legend Double Dagger 8.2 6.7 90 36 14 24.1 101.87     LegendNANA
08:00 Legend Double Dagger 11.3 8.3 82 36 19 24.1 101.94     Clear
09:00 Legend Double Dagger 14.1 8.5 69 1 20 24.1 102.00     LegendNANA
10:00 Legend Double Dagger 15.4 6.6 55 1 27 24.1 102.06     LegendNANA
11:00 Legend Double Dagger 16.4 4.9 46 35 32 24.1 102.05     Clear
12:00 Legend Double Dagger 15.8 8.1 60 33 24 24.1 102.06     LegendNANA
13:00 Legend Double Dagger 15.0 8.9 66 33 28 24.1 102.08     LegendNANA
14:00 Legend Double Dagger 15.8 5.0 48 35 33 24.1 102.12     Clear
15:00 Legend Double Dagger 14.6 4.9 52 36 23 24.1 102.20     LegendNANA
16:00 Legend Double Dagger 14.1 3.0 47 3 26 24.1 102.28     LegendNANA
17:00 Legend Double Dagger 12.9 3.0 51 36 23 24.1 102.38     Clear
18:00 Legend Double Dagger 9.9 1.5 55 3 15 24.1 102.52     LegendNANA
19:00 Legend Double Dagger 8.2 2.1 65 3 13 24.1 102.62     LegendNANA
20:00 Legend Double Dagger 7.9 2.7 69 5 15 24.1 102.72     Clear
21:00 Legend Double Dagger 7.0 2.8 75 4 15 24.1 102.82     LegendNANA
22:00 Legend Double Dagger 6.6 2.6 75 5 13 24.1 102.88     LegendNANA
23:00 Legend Double Dagger 6.0 2.8 80 6 12 24.1 102.88     Clear

Notes on Data Quality.

Legend

  • E = Estimated
  • M = Missing
  • NA = Not Available
  • ‡ = Partner data that is not subject to review by the National Climate Archives
Date modified: